Location: Fazenda Monte Alegre
(4.8500°S, 38.0333°W)
Time: 17:28:01
(UTC+00:00)

USA 234 - Pass Details

Date: 24 September 2020
Orbit: 1102 x 1106 km, 123.0° (Epoch: 16 October)

Event Time Altitude Azimuth Distance (km) Brightness Sun altitude
Rises 21:28:33 0° 25° (NNE) 3,905 5.9 -16.0°
Reaches altitude 10° 21:31:05 10° 20° (NNE) 2,951 5.3 -16.7°
Maximum altitude 21:37:22 51° 306° (NW) 1,354 4.0 -18.2°
Drops below altitude 10° 21:43:42 10° 232° (SW) 2,965 6.3 -19.8°
Sets 21:46:16 0° 226° (SW) 3,926 6.9 -20.4°
